Regional Weather Roundup
Issued by NWS

Home | Current Version | Previous Version | Graphics & Text | Print | Product List | Glossary On
Versions: 1 2 3 4 5 6 7 8 9 10 11 12 13 14 15 16 17 18 19 20 21 22 23 24 25 26 27 28 29 30 31 32 33 34 35 36 37 38 39 40 41 42 43 44 45 46 47 48 49 50
000
ASUS43 KIND 240359
RWRIN

WEATHER ROUNDUP FOR INDIANA
NATIONAL WEATHER SERVICE INDIANAPOLIS IN
1200 AM EDT THU MAY 24 2018

NOTE: "FAIR" INDICATES FEW OR NO CLOUDS BELOW 12,000 FEET WITH NO
SIGNIFICANT WEATHER AND/OR OBSTRUCTIONS TO VISIBILITY.

* - STATION DOES NOT REPORT WEATHER SUCH AS PRECIPITATION OR FOG.

+ - STATION NOT QUALITY CONTROLLED BY THE NATIONAL WEATHER SERVICE.
    USE DATA WITH CAUTION...ESPECIALLY DEWPOINT AND RELATIVE
    HUMIDITY OBSERVATIONS.

INZ001>003-010>013-019-020-240500-
NORTHWEST INDIANA

CITY           SKY/WX    TMP DP  RH WIND       PRES   REMARKS
MICHIGAN CITY+ FAIR      54  54 100 CALM      30.20F
MONTICELLO +   FAIR      61  56  83 CALM      30.18S

$$

LMZ046-743>745-240500-
SOUTHERN LAKE MICHIGAN

STATION/POSITION TIME  TEMP    WIND        PRES    WAVE
                       AIR SEA DIR/SP/G            HT
                 (UTC) (F)     (DEG/KT/KT) (MB)    (FT)
BURNS HARBOR     0340   57      70/  5/  5 1022.7S
MICHIGAN CITY    0330   60      70/  4/  4   N/A
5NW MICH CITY    0350   57 57   90/  4/  4   N/A     0

$$

INZ004-005-014>016-021>024-240500-
NORTH CENTRAL INDIANA

CITY           SKY/WX    TMP DP  RH WIND       PRES   REMARKS
GOSHEN         FAIR      60  55  83 CALM      30.20R
SOUTH BEND     FAIR      59  55  87 CALM      30.21R

$$

INZ006>009-017-018-025>027-240500-
NORTHEAST INDIANA

CITY           SKY/WX    TMP DP  RH WIND       PRES   REMARKS
ANGOLA *+      FAIR      59  55  88 CALM      30.20S
FORT WAYNE     FAIR      63  55  75 CALM      30.20S
KENDALLVILLE + FAIR      62  49  62 CALM      30.21S

$$

INZ028-029-035-036-043>045-051>053-240500-
WEST CENTRAL INDIANA

CITY           SKY/WX    TMP DP  RH WIND       PRES   REMARKS
CRAWFORDSVL +  FAIR      61  55  79 CALM      30.18S
GREENCASTLE +  FAIR      64  50  59 CALM      30.19S
LAFAYETTE      FAIR      63  54  72 CALM      30.17S
TERRE HAUTE    FAIR      65  57  75 NE3       30.16R

$$

INZ030>032-037>040-046>048-054>057-064-065-240500-
CENTRAL INDIANA

CITY           SKY/WX    TMP DP  RH WIND       PRES   REMARKS
ANDERSON       FAIR      61  54  76 CALM      30.21R
INDIANAPOLIS   FAIR      70  54  56 NE7       30.18R
-EAGLE CREEK   FAIR      66  52  60 CALM      30.18R
KOKOMO +       FAIR      64  56  75 CALM      30.20S
MT COMFORT *+  FAIR      61  57  88 CALM      30.20R
SHELBYVILLE    FAIR      66  55  67 E7        30.18S

$$

INZ033-034-041-042-049-050-058-059-240500-
EAST CENTRAL INDIANA

CITY           SKY/WX    TMP DP  RH WIND       PRES   REMARKS
MUNCIE         FAIR      63  52  67 CALM      30.20R
RICHMOND +     FAIR      59  55  88 NE7       30.21S

$$

INZ060-061-067>069-081>083-085>088-240500-
SOUTHWEST INDIANA

CITY           SKY/WX    TMP DP  RH WIND       PRES   REMARKS
EVANSVILLE     FAIR      71  61  70 NE6       30.12F
HUNTINGBURG +  FAIR      68  60  75 NE7       30.14S

$$

INZ062-063-066-070>080-084-089>092-240500-
SOUTH CENTRAL AND SOUTHEAST INDIANA

CITY           SKY/WX    TMP DP  RH WIND       PRES   REMARKS
BLOOMINGTON    FAIR      63  60  90 CALM      30.17R
FRENCH LICK *+ FAIR      68  48  49 NE5       30.16S
SEYMOUR +      FAIR      68  59  73 NE5       30.17

$$





USA.gov is the U.S. government's official web portal to all federal, state and local government web resources and services.